ONEWEB-0711, 55174

Orbit data source: Space-Track

ONEWEB-0711, 55174 is a payload satellite owned by One Web (NAA) (UK) in LEO that was launched on Tue, 10 Jan 2023 UTC via an FALCON 9 launch vehicle from the Air Force Eastern Test Range (AFETR). Payload-class satellites include a variety of spacecraft equipped with specific instruments for various scientific and technological missions. These include communications satellites like Starlink; space stations such as the ISS; scientific satellites like the Hubble; Earth observation satellites from companies like Planet Labs, Umbra, and HawkEye 360; GPS; miniature CubeSats for education and research; and military/defense satellites.

Loading next visibility...
Identifier
55174, 2023-004AL
Orbit
LEO
Country
Flag of UKUK
Related business
Manufacturer
One Web
Mission
Operational Commercial Communications
Bus & Motor
ARROW, Unknown motor
Mass
148 kg wet, ~140 kg dry
Launch date (UTC)
2023-01-10 (3 years ago)
Launch vehicle
FALCON 9
Launch site
Air Force Eastern Test Range (AFETR)
Object type
Payload
Rocket body
Debris
Shape & HBR
Trap Box + 2 Pan, 6.7 m
Radar Cross Section
3.464 m², Large (>1 m²)

Expand to show TLE details & history
Last TLE update: 2 days ago

TLE from 2 days ago
0 ONEWEB-0711
1 55174U 23004AL  26171.30367610 -.00000687  00000-0 -19752-2 0  9993
2 55174  87.8880  20.4466 0002472  79.2910 280.8496 13.11417703166242
Epoch: 2026-06-20T07:17Z
TLE epoch observation values (Epoch: 2026-06-20T07:17:17.615Z)
Latitude
-0.00002°
Longitude
2.60297°
Altitude
1,220.216 km
Speed
7.244 km/s
True Right ascension
01h 21m 47s
True Declination
0° 00' 00"
Sunlit
Object was in daylight at epoch
Visualization orbit readout
Latitude
Unknown
Longitude
Unknown
Altitude
Unknown
Speed
Unknown
Apparent Right ascension
Unknown
Apparent Declination
Unknown
Sunlit
N/A
Visualization observer readout
Local Sidereal Time
21:27:12
Azimuth
Unknown
Elevation
Unknown
Doppler factor
Unknown
Orbital elements
Apogee altitude
1,216.675 km
Perigee altitude
1,212.921 km
Semi-major axis
7,592.935 km
Eccentricity
0.00025
Inclination
87.888°
RAAN
20.4466°
Arg. of periapsis
79.291°
True anomaly
280.82178°
Mean anomaly
280.8496°
Eccentric anomaly
280.83569°
Mean motion
3.28041 °/min
Orbital period
109.74 mins
BSTAR
-0.0019752
Loading maneuver chart data...
Computing Atmospheric mass density...
Loading historical data...
Loading historical data...
Loading historical data...
Loading historical data...
Loading historical data...
Loading historical data...
Loading historical data...

Documentation

Showing up to 5 results
|